DateTimeUTC,F1_A11,F1_S11,BsB_S11,BsG_S11,BsR_S11,BbsB_S11,BbsG_S11,BbsR_S11,BaB_A11,BaG_A11,BaR_A11,Tu_S11,T_S11,Uu_S11,U_S11,P_S11,T1_A11
2021-03-13T07:00:00Z,00000200,21000000,,,,,,,0000.18,0000.30,0000.06,16.4,24.1,,00.0,0637.8,30.9
2021-03-13T07:01:00Z,00000200,21000000,,,,,,,0000.05,0000.15,0000.29,16.4,24.1,,00.0,0637.8,30.9
2021-03-13T07:02:00Z,00000200,21000000,,,,,,,0000.24,-000.09,-000.09,16.4,24.1,,00.0,0637.8,30.9
2021-03-13T07:03:00Z,00000200,61000000,,,,,,,0000.09,0000.45,0000.31,16.5,24.2,,00.0,0637.8,30.9
2021-03-13T07:04:00Z,00000200,41000000,-000.13,0000.27,-000.01,0000.18,0000.07,0000.03,0000.53,0000.60,0000.24,16.9,24.1,,00.0,0638.7,30.9
2021-03-13T07:05:00Z,00000200,01000000,0000.43,0000.00,0000.02,0000.08,0000.04,0000.04,0000.18,0000.05,0000.21,17.0,24.1,,00.0,0638.8,30.9
2021-03-13T07:06:00Z,00000200,01000000,0000.27,0000.15,0000.24,0000.51,-000.01,0000.40,0000.64,0000.01,-000.24,17.1,24.1,,00.0,0638.8,30.9
2021-03-13T07:07:00Z,00000200,01010000,0000.74,0000.33,0000.21,-000.32,0000.04,0000.11,-000.38,0000.42,-000.07,17.1,24.1,,00.0,0638.8,30.9
2021-03-13T07:08:00Z,00000200,01000000,0000.11,0000.16,0000.31,0000.53,0000.21,0000.16,0000.30,0000.08,0000.14,17.1,24.1,,00.0,0638.8,30.9
2021-03-13T07:09:00Z,00000200,01000000,0000.63,0000.11,0000.18,0000.17,0000.03,-000.06,0000.23,0000.30,0000.40,17.1,24.1,,00.0,0638.8,30.9
2021-03-13T07:10:00Z,00000200,01000000,0000.80,0000.11,-000.06,0000.61,-000.01,-000.05,0000.35,0000.26,0000.35,17.0,24.1,,00.0,0638.8,30.9
2021-03-13T07:11:00Z,00000200,01000000,0000.71,0000.04,0000.16,-000.04,0000.03,-000.00,-000.29,-000.14,0000.24,17.0,24.0,,00.0,0638.8,30.9
2021-03-13T07:12:00Z,00000200,01000000,0000.42,0000.33,0000.16,0000.18,-000.02,0000.31,0000.39,0000.39,-000.20,16.9,24.0,,00.0,0638.8,30.9
2021-03-13T07:13:00Z,00000200,01000000,0000.32,0000.20,0000.19,-000.06,-000.02,0000.20,0000.04,-000.19,0000.22,16.9,24.0,,00.0,0638.8,30.9
2021-03-13T07:14:00Z,00000200,01000000,0000.22,0000.16,0000.15,-000.01,0000.15,0000.17,0000.60,0000.52,0000.15,17.0,24.0,,00.0,0638.7,30.9
2021-03-13T07:15:00Z,00000200,01000000,0000.29,0000.17,-000.18,-000.66,-000.04,0000.09,-000.22,0000.17,0000.06,17.1,24.0,,00.0,0638.8,30.9
2021-03-13T07:16:00Z,00000200,01000000,0000.38,0000.18,0000.21,0000.12,0000.22,0000.21,0000.64,0000.35,0000.19,17.1,24.1,,00.0,0638.8,30.9
2021-03-13T07:17:00Z,00000200,01000000,0000.78,-000.15,0000.05,0000.31,0000.25,0000.19,-000.20,-000.38,-000.19,17.2,24.1,,00.0,0638.7,30.9
2021-03-13T07:18:00Z,00000200,01000000,0000.42,-000.03,-000.01,0000.26,-000.07,0000.15,0000.38,0000.16,0000.47,17.2,24.1,,00.0,0638.7,30.9
2021-03-13T07:19:00Z,00000200,01000000,-000.03,0000.21,0000.21,0000.10,0000.09,0000.13,-000.06,0000.32,-000.24,17.1,24.1,,00.0,0638.7,30.9
2021-03-13T07:20:00Z,00000200,01000000,0000.28,-000.04,0000.34,0000.27,-000.01,0000.02,0000.01,-000.24,0000.34,17.1,24.1,,00.0,0638.7,30.9
2021-03-13T07:21:00Z,00000200,01000000,0000.60,0000.10,0000.35,-000.25,0000.06,-000.07,-000.62,-000.11,-000.03,17.0,24.1,,00.0,0638.7,30.9
2021-03-13T07:22:00Z,00000200,01000000,0000.65,-000.02,0000.03,-000.22,-000.03,-000.10,0000.62,0000.00,-000.31,17.0,24.0,,00.0,0638.7,30.9
2021-03-13T07:23:00Z,00000200,01000000,0000.56,0000.04,0000.10,0000.11,-000.05,0000.05,0000.09,0000.32,0000.38,16.9,24.0,,00.0,0638.7,30.9
2021-03-13T07:24:00Z,00000200,01000000,0000.03,0000.04,0000.10,-000.24,0000.02,0000.16,0000.22,0000.25,0000.12,16.9,24.0,,00.0,0638.7,30.9
2021-03-13T07:25:00Z,00000200,01000000,0000.28,0000.12,0000.12,0000.64,0000.13,-000.18,0000.03,-000.25,-000.05,16.8,24.0,,00.0,0638.6,30.9
2021-03-13T07:26:00Z,00000200,01000000,0000.03,0000.04,0000.25,-000.29,0000.11,-000.05,-000.04,0000.06,0000.28,16.8,24.0,,00.0,0638.6,30.9
2021-03-13T07:27:00Z,00000200,01000000,0000.70,0000.12,0000.00,-000.15,0000.09,0000.07,0000.33,0000.37,0000.18,16.8,23.9,,00.0,0638.6,30.9
2021-03-13T07:28:00Z,00000200,01000000,0000.10,0000.06,0000.16,-000.15,0000.17,0000.32,0000.33,0000.53,0000.34,16.8,23.9,,00.0,0638.6,30.9
2021-03-13T07:29:00Z,00000200,01000000,0000.06,0000.11,0000.16,-000.04,0000.17,-000.05,0000.34,0000.18,-000.05,16.9,23.9,,00.0,0638.5,30.9
2021-03-13T07:30:00Z,00000200,01000000,0000.17,-000.05,-000.04,0000.03,0000.03,-000.05,0000.47,0000.67,0000.44,16.9,23.9,,00.0,0638.5,30.9
2021-03-13T07:31:00Z,00000200,01000000,-000.09,0000.24,0000.38,0000.40,0000.16,0000.09,0000.34,0000.07,0000.10,17.0,24.0,,00.0,0638.5,30.9
2021-03-13T07:32:00Z,00000200,01000000,-000.60,0000.11,0000.39,0000.58,0000.14,0000.11,0000.15,0000.42,0000.26,17.0,24.0,,00.0,0638.5,30.9
2021-03-13T07:33:00Z,00000200,01000000,0000.13,0000.04,0000.11,0000.19,0000.11,-000.11,-000.26,-000.25,-000.08,17.1,24.0,,00.0,0638.5,30.9
2021-03-13T07:34:00Z,00000200,01000000,0000.54,0000.05,0000.40,-000.01,-000.02,0000.21,0000.45,0000.27,0000.08,17.1,24.0,,00.0,0638.4,30.9
2021-03-13T07:35:00Z,00000200,01000000,0000.34,0000.36,0000.09,0000.18,0000.21,0000.03,0000.17,-000.04,0000.14,17.1,24.0,,00.0,0638.4,30.9
2021-03-13T07:36:00Z,00000200,01000000,0000.51,-000.09,-000.09,0000.14,-000.04,0000.00,0000.21,0000.21,0000.01,17.0,24.0,,00.0,0638.4,30.9
2021-03-13T07:37:00Z,00000200,01000000,0000.07,0000.11,0000.38,-000.17,0000.04,-000.21,-000.16,0000.41,-000.01,17.0,24.0,,00.0,0638.4,30.9
2021-03-13T07:38:00Z,00000200,01000000,0000.18,-000.15,0000.02,0000.23,0000.04,0000.34,0000.34,-000.39,0000.28,16.9,24.0,,00.0,0638.3,30.9
2021-03-13T07:39:00Z,00000200,01000000,0000.23,0000.15,0000.10,0000.07,-000.09,-000.12,-000.01,0000.29,-000.08,16.9,23.9,,00.0,0638.3,30.9
2021-03-13T07:40:00Z,00000200,01000000,0000.44,0000.07,-000.22,-000.27,-000.05,0000.11,-000.01,-000.39,-000.05,16.8,23.9,,00.0,0638.2,30.9
2021-03-13T07:41:00Z,00000200,01000000,0000.09,-000.01,0000.13,0000.15,0000.21,0000.30,0000.12,0000.31,0000.07,16.8,23.9,,00.0,0638.2,30.9
2021-03-13T07:42:00Z,00000200,01000000,0000.55,-000.12,0000.07,-000.06,0000.20,-000.05,0000.16,0000.51,0000.40,16.8,23.9,,00.0,0638.1,30.9
2021-03-13T07:43:00Z,00000200,01000000,-000.32,-000.06,0000.26,-000.10,0000.02,-000.07,0000.72,0000.29,0000.26,16.8,23.8,,00.0,0638.1,30.9
2021-03-13T07:44:00Z,00000200,01000000,0000.18,-000.25,0000.23,-000.16,0000.06,-000.05,-000.36,-000.09,-000.03,16.8,23.8,,00.0,0638.1,30.9
2021-03-13T07:45:00Z,00000200,01000000,0000.38,-000.13,0000.24,0000.09,0000.32,0000.10,0000.10,0000.35,0000.50,16.9,23.9,,00.0,0638.1,30.9
2021-03-13T07:46:00Z,00000200,01000000,0000.17,0000.25,-000.04,-000.13,0000.07,0000.10,0000.35,0000.17,-000.27,16.9,23.9,,00.0,0638.0,30.9
2021-03-13T07:47:00Z,00000200,01000000,0000.43,-000.20,-000.27,0000.08,0000.16,-000.10,-000.09,-000.03,0000.06,17.0,23.9,,00.0,0638.0,30.9
2021-03-13T07:48:00Z,00000200,01000000,0000.22,-000.21,0000.03,0000.43,0000.12,0000.21,0000.16,-000.27,0000.16,17.1,24.0,,00.0,0638.0,30.9
2021-03-13T07:49:00Z,00000200,01000000,0000.05,-000.11,-000.14,-000.51,-000.04,0000.14,-000.16,0000.27,0000.04,17.1,24.0,,00.0,0638.0,30.9
2021-03-13T07:50:00Z,00000200,01000000,0000.32,0000.10,-000.11,-000.14,0000.05,0000.15,0000.02,0000.27,-000.07,17.2,24.0,,00.0,0637.9,30.9
2021-03-13T07:51:00Z,00000200,01000000,-000.02,-000.31,0000.03,-000.02,0000.12,0000.13,-000.00,-000.30,-000.07,17.2,24.1,,00.0,0637.9,30.9
2021-03-13T07:52:00Z,00000200,01000000,0000.09,0000.02,0000.45,-000.31,-000.08,0000.18,0000.08,0000.19,0000.33,17.3,24.1,,00.0,0637.9,30.9
2021-03-13T07:53:00Z,00000200,01000000,-000.44,-000.05,-000.04,-000.14,0000.16,-000.09,-000.04,-000.03,-000.21,17.3,24.1,,00.0,0637.9,31.0
2021-03-13T07:54:00Z,00000200,01000000,0000.76,-000.24,-000.08,-000.32,-000.12,0000.19,-000.09,-000.08,-000.06,17.4,24.2,,00.0,0637.9,31.0
2021-03-13T07:55:00Z,00000200,01000000,0000.04,0000.25,-000.02,-000.12,-000.05,0000.13,-000.21,-000.68,-000.04,17.4,24.2,,00.0,0637.8,31.0
2021-03-13T07:56:00Z,00000200,01000000,-000.16,-000.03,0000.22,0000.13,-000.25,0000.12,0000.25,0000.83,0000.11,17.5,24.2,,00.0,0637.8,31.0
2021-03-13T07:57:00Z,00000200,41000000,,,,,,,0000.17,0000.05,0000.04,17.5,24.3,,00.0,0637.9,30.9
2021-03-13T07:58:00Z,00000200,61000000,,,,,,,-000.35,-000.37,-000.40,17.1,24.4,,00.0,0636.8,30.9
2021-03-13T07:59:00Z,00000200,21000000,,,,,,,-000.10,-000.22,0000.13,17.0,24.5,,00.0,0636.8,30.9
